Time,TemperatureF,DewpointF,PressureIn,WindDirection,WindDirectionDegrees,WindSpeedMPH,WindSpeedGustMPH,Humidity,HourlyPrecipIn,Conditions,Clouds,dailyrainin,SoftwareType,DateUTC
2013-11-30 00:01:00,26.4,9.9,30.62,NW,315,0.7,1.6,49,0.00,,,0.00,meteobridge,2013-11-30 05:01:00,
2013-11-30 00:02:00,26.4,9.9,30.62,East,90,0.7,0.7,49,0.00,,,0.00,meteobridge,2013-11-30 05:02:00,
2013-11-30 00:03:00,26.4,9.9,30.62,NW,315,0.7,0.7,49,0.00,,,0.00,meteobridge,2013-11-30 05:03:00,
2013-11-30 00:08:00,26.6,9.5,30.62,North,0,0.7,0.7,48,0.00,,,0.00,meteobridge,2013-11-30 05:08:00,
2013-11-30 00:13:00,26.4,9.9,30.62,North,0,0.7,1.6,49,0.00,,,0.00,meteobridge,2013-11-30 05:13:00,
2013-11-30 00:18:00,26.4,10.2,30.61,North,0,0.7,0.7,50,0.00,,,0.00,meteobridge,2013-11-30 05:18:00,
2013-11-30 00:24:00,26.4,10.2,30.61,North,0,0.0,0.7,50,0.00,,,0.00,meteobridge,2013-11-30 05:24:00,
2013-11-30 00:29:00,26.4,10.2,30.62,North,0,0.7,0.7,50,0.00,,,0.00,meteobridge,2013-11-30 05:29:00,
2013-11-30 00:34:00,26.4,10.2,30.61,NW,315,0.0,0.0,50,0.00,,,0.00,meteobridge,2013-11-30 05:34:00,
2013-11-30 00:39:00,26.2,10.2,30.61,NW,315,0.0,1.6,50,0.00,,,0.00,meteobridge,2013-11-30 05:39:00,
2013-11-30 00:44:00,26.1,10.0,30.61,East,90,0.7,0.7,50,0.00,,,0.00,meteobridge,2013-11-30 05:44:00,
2013-11-30 00:50:00,26.1,10.0,30.61,North,0,0.0,0.0,50,0.00,,,0.00,meteobridge,2013-11-30 05:50:00,
2013-11-30 00:55:00,25.9,9.9,30.61,North,0,0.0,0.0,50,0.00,,,0.00,meteobridge,2013-11-30 05:55:00,
2013-11-30 01:00:00,25.7,9.7,30.61,North,0,0.0,0.0,50,0.00,,,0.00,meteobridge,2013-11-30 06:00:00,
2013-11-30 01:05:00,25.5,9.5,30.61,West,270,0.0,0.0,50,0.00,,,0.00,meteobridge,2013-11-30 06:05:00,
2013-11-30 01:10:00,25.2,9.5,30.61,West,270,0.0,0.0,51,0.00,,,0.00,meteobridge,2013-11-30 06:10:00,
2013-11-30 01:15:00,25.0,9.3,30.62,West,270,0.0,0.0,51,0.00,,,0.00,meteobridge,2013-11-30 06:15:00,
2013-11-30 01:21:00,24.6,9.9,30.62,West,270,0.0,0.0,53,0.00,,,0.00,meteobridge,2013-11-30 06:21:00,
2013-11-30 01:26:00,24.4,9.7,30.62,NE,45,0.0,1.6,53,0.00,,,0.00,meteobridge,2013-11-30 06:26:00,
2013-11-30 01:31:00,24.3,10.0,30.62,NE,45,0.0,0.0,54,0.00,,,0.00,meteobridge,2013-11-30 06:31:00,
2013-11-30 01:36:00,24.1,9.9,30.62,NW,315,0.7,0.7,54,0.00,,,0.00,meteobridge,2013-11-30 06:36:00,
2013-11-30 01:41:00,23.9,10.0,30.62,NE,45,0.0,0.0,55,0.00,,,0.00,meteobridge,2013-11-30 06:41:00,
2013-11-30 01:46:00,24.1,10.2,30.63,West,270,0.7,0.7,55,0.00,,,0.00,meteobridge,2013-11-30 06:46:00,
2013-11-30 01:52:00,24.4,10.9,30.62,NW,315,0.0,0.7,56,0.00,,,0.00,meteobridge,2013-11-30 06:52:00,
2013-11-30 01:57:00,25.2,12.0,30.63,SW,225,0.7,1.6,57,0.00,,,0.00,meteobridge,2013-11-30 06:57:00,
2013-11-30 02:02:00,25.7,12.6,30.62,NW,315,1.6,1.6,57,0.00,,,0.00,meteobridge,2013-11-30 07:02:00,
2013-11-30 02:07:00,26.2,13.5,30.63,SE,135,0.0,0.7,58,0.00,,,0.00,meteobridge,2013-11-30 07:07:00,
2013-11-30 02:12:00,26.6,13.1,30.63,NE,45,0.0,1.6,56,0.00,,,0.00,meteobridge,2013-11-30 07:12:00,
2013-11-30 02:17:00,26.8,13.1,30.63,NW,315,0.0,0.7,56,0.00,,,0.00,meteobridge,2013-11-30 07:17:00,
2013-11-30 02:23:00,27.0,13.3,30.63,NE,45,0.7,0.7,56,0.00,,,0.00,meteobridge,2013-11-30 07:23:00,
2013-11-30 02:28:00,27.1,13.5,30.63,West,270,0.7,0.7,56,0.00,,,0.00,meteobridge,2013-11-30 07:28:00,
2013-11-30 02:33:00,27.3,13.6,30.63,South,180,0.7,0.7,56,0.00,,,0.00,meteobridge,2013-11-30 07:33:00,
2013-11-30 02:38:00,27.5,13.8,30.63,SW,225,0.0,1.6,56,0.00,,,0.00,meteobridge,2013-11-30 07:38:00,
2013-11-30 02:43:00,27.7,13.6,30.63,North,0,0.0,0.0,55,0.00,,,0.00,meteobridge,2013-11-30 07:43:00,
2013-11-30 02:48:00,27.7,13.6,30.62,NE,45,0.0,0.0,55,0.00,,,0.00,meteobridge,2013-11-30 07:48:00,
2013-11-30 02:54:00,27.5,13.8,30.62,NE,45,0.0,0.0,56,0.00,,,0.00,meteobridge,2013-11-30 07:54:00,
2013-11-30 02:59:00,27.5,13.8,30.62,NE,45,0.0,0.0,56,0.00,,,0.00,meteobridge,2013-11-30 07:59:00,
2013-11-30 03:04:00,27.3,13.6,30.63,North,0,0.7,2.2,56,0.00,,,0.00,meteobridge,2013-11-30 08:04:00,
2013-11-30 03:09:00,27.5,13.8,30.62,NW,315,0.7,1.6,56,0.00,,,0.00,meteobridge,2013-11-30 08:09:00,
2013-11-30 03:14:00,27.7,14.0,30.62,West,270,0.7,0.7,56,0.00,,,0.00,meteobridge,2013-11-30 08:14:00,
2013-11-30 03:19:00,27.9,14.2,30.63,North,0,0.7,0.7,56,0.00,,,0.00,meteobridge,2013-11-30 08:19:00,
2013-11-30 03:25:00,27.9,14.2,30.63,NE,45,0.0,0.7,56,0.00,,,0.00,meteobridge,2013-11-30 08:25:00,
2013-11-30 03:30:00,27.7,14.0,30.63,East,90,0.0,0.0,56,0.00,,,0.00,meteobridge,2013-11-30 08:30:00,
2013-11-30 03:35:00,27.5,13.8,30.63,South,180,0.0,0.0,56,0.00,,,0.00,meteobridge,2013-11-30 08:35:00,
2013-11-30 03:40:00,27.1,13.5,30.63,SE,135,0.0,0.0,56,0.00,,,0.00,meteobridge,2013-11-30 08:40:00,
2013-11-30 03:45:00,26.8,13.1,30.63,NW,315,0.0,0.7,56,0.00,,,0.00,meteobridge,2013-11-30 08:45:00,
2013-11-30 03:50:00,26.6,13.5,30.63,NW,315,0.0,0.0,57,0.00,,,0.00,meteobridge,2013-11-30 08:50:00,
2013-11-30 03:56:00,26.2,13.5,30.63,NW,315,0.0,0.0,58,0.00,,,0.00,meteobridge,2013-11-30 08:56:00,
2013-11-30 04:01:00,26.1,13.3,30.63,NW,315,0.0,0.0,58,0.00,,,0.00,meteobridge,2013-11-30 09:01:00,
2013-11-30 04:06:00,25.7,12.9,30.63,NW,315,0.0,0.0,58,0.00,,,0.00,meteobridge,2013-11-30 09:06:00,
2013-11-30 04:11:00,25.5,13.1,30.63,NW,315,0.0,0.0,59,0.00,,,0.00,meteobridge,2013-11-30 09:11:00,
2013-11-30 04:16:00,25.5,13.1,30.63,North,0,0.0,0.0,59,0.00,,,0.00,meteobridge,2013-11-30 09:16:00,
2013-11-30 04:21:00,25.5,13.6,30.63,East,90,0.0,0.0,60,0.00,,,0.00,meteobridge,2013-11-30 09:21:00,
2013-11-30 04:27:00,25.5,14.0,30.63,NW,315,0.0,0.0,61,0.00,,,0.00,meteobridge,2013-11-30 09:27:00,
2013-11-30 04:32:00,25.5,14.0,30.63,NW,315,0.0,0.0,61,0.00,,,0.00,meteobridge,2013-11-30 09:32:00,
2013-11-30 04:37:00,25.5,14.0,30.63,NW,315,0.0,0.0,61,0.00,,,0.00,meteobridge,2013-11-30 09:37:00,
2013-11-30 04:42:00,25.7,14.2,30.63,NW,315,0.0,0.0,61,0.00,,,0.00,meteobridge,2013-11-30 09:42:00,
2013-11-30 04:47:00,25.7,14.5,30.63,NW,315,0.0,0.0,62,0.00,,,0.00,meteobridge,2013-11-30 09:47:00,
2013-11-30 04:52:00,25.9,14.7,30.63,West,270,0.0,1.6,62,0.00,,,0.00,meteobridge,2013-11-30 09:52:00,
2013-11-30 04:58:00,26.1,14.9,30.63,East,90,0.0,0.0,62,0.00,,,0.00,meteobridge,2013-11-30 09:58:00,
2013-11-30 05:03:00,26.2,15.1,30.63,NE,45,0.0,0.0,62,0.00,,,0.00,meteobridge,2013-11-30 10:03:00,
2013-11-30 05:08:00,26.4,15.1,30.63,NE,45,0.0,0.0,62,0.00,,,0.00,meteobridge,2013-11-30 10:08:00,
2013-11-30 05:13:00,26.6,14.9,30.64,NE,45,0.0,0.0,61,0.00,,,0.00,meteobridge,2013-11-30 10:13:00,
2013-11-30 05:18:00,26.6,14.9,30.63,NE,45,0.0,0.0,61,0.00,,,0.00,meteobridge,2013-11-30 10:18:00,
2013-11-30 05:23:00,26.6,14.9,30.64,NE,45,0.0,0.0,61,0.00,,,0.00,meteobridge,2013-11-30 10:23:00,
2013-11-30 05:29:00,26.4,15.1,30.64,West,270,0.0,0.0,62,0.00,,,0.00,meteobridge,2013-11-30 10:29:00,
2013-11-30 05:34:00,26.4,15.1,30.64,NW,315,0.0,0.0,62,0.00,,,0.00,meteobridge,2013-11-30 10:34:00,
2013-11-30 05:39:00,26.4,14.7,30.65,NW,315,0.0,0.0,61,0.00,,,0.00,meteobridge,2013-11-30 10:39:00,
2013-11-30 05:44:00,26.6,14.5,30.65,East,90,0.0,0.0,60,0.00,,,0.00,meteobridge,2013-11-30 10:44:00,
2013-11-30 05:49:00,26.6,14.9,30.65,North,0,0.0,0.0,61,0.00,,,0.00,meteobridge,2013-11-30 10:49:00,
2013-11-30 05:54:00,26.8,14.7,30.65,North,0,0.0,0.0,60,0.00,,,0.00,meteobridge,2013-11-30 10:54:00,
2013-11-30 06:00:00,26.8,14.7,30.65,North,0,0.0,0.0,60,0.00,,,0.00,meteobridge,2013-11-30 11:00:00,
2013-11-30 06:05:00,26.8,14.4,30.65,NE,45,0.0,0.0,59,0.00,,,0.00,meteobridge,2013-11-30 11:05:00,
2013-11-30 06:10:00,26.8,14.4,30.65,NE,45,0.7,0.7,59,0.00,,,0.00,meteobridge,2013-11-30 11:10:00,
2013-11-30 06:15:00,27.0,14.2,30.65,SW,225,0.0,0.0,58,0.00,,,0.00,meteobridge,2013-11-30 11:15:00,
2013-11-30 06:20:00,27.0,14.2,30.65,NE,45,0.0,0.7,58,0.00,,,0.00,meteobridge,2013-11-30 11:20:00,
2013-11-30 06:25:00,26.8,14.0,30.65,NE,45,0.0,0.0,58,0.00,,,0.00,meteobridge,2013-11-30 11:25:00,
2013-11-30 06:31:00,26.6,13.8,30.66,West,270,0.0,0.0,58,0.00,,,0.00,meteobridge,2013-11-30 11:31:00,
2013-11-30 06:36:00,26.4,14.0,30.65,West,270,0.0,0.7,59,0.00,,,0.00,meteobridge,2013-11-30 11:36:00,
2013-11-30 06:41:00,26.2,13.8,30.65,West,270,0.0,0.0,59,0.00,,,0.00,meteobridge,2013-11-30 11:41:00,
2013-11-30 06:46:00,25.9,13.5,30.65,NW,315,0.0,0.0,59,0.00,,,0.00,meteobridge,2013-11-30 11:46:00,
2013-11-30 06:51:00,25.9,13.8,30.65,West,270,0.0,0.0,60,0.00,,,0.00,meteobridge,2013-11-30 11:51:00,
2013-11-30 06:57:00,25.7,14.2,30.66,West,270,0.0,0.0,61,0.00,,,0.00,meteobridge,2013-11-30 11:57:00,
2013-11-30 07:02:00,25.7,14.2,30.66,West,270,0.0,0.0,61,0.00,,,0.00,meteobridge,2013-11-30 12:02:00,
2013-11-30 07:07:00,25.7,14.2,30.66,West,270,0.7,0.7,61,0.00,,,0.00,meteobridge,2013-11-30 12:07:00,
2013-11-30 07:12:00,25.7,14.5,30.66,East,90,0.7,0.7,62,0.00,,,0.00,meteobridge,2013-11-30 12:12:00,
2013-11-30 07:17:00,25.9,14.7,30.66,East,90,0.0,0.0,62,0.00,,,0.00,meteobridge,2013-11-30 12:17:00,
2013-11-30 07:22:00,26.2,15.1,30.66,NW,315,0.0,0.0,62,0.00,,,0.00,meteobridge,2013-11-30 12:22:00,
2013-11-30 07:28:00,26.4,15.1,30.66,NW,315,0.0,0.0,62,0.00,,,0.00,meteobridge,2013-11-30 12:28:00,
2013-11-30 07:33:00,26.8,15.1,30.66,North,0,0.0,0.0,61,0.00,,,0.00,meteobridge,2013-11-30 12:33:00,
2013-11-30 07:38:00,27.1,15.4,30.66,North,0,0.0,0.0,61,0.00,,,0.00,meteobridge,2013-11-30 12:38:00,
2013-11-30 07:43:00,27.7,16.3,30.66,North,0,0.0,0.0,62,0.00,,,0.00,meteobridge,2013-11-30 12:43:00,
2013-11-30 07:48:00,28.2,16.9,30.66,West,270,0.0,0.0,62,0.00,,,0.00,meteobridge,2013-11-30 12:48:00,
2013-11-30 07:53:00,28.6,18.7,30.67,West,270,0.0,0.0,66,0.00,,,0.00,meteobridge,2013-11-30 12:53:00,
2013-11-30 07:59:00,28.8,18.5,30.67,SE,135,0.7,1.6,65,0.00,,,0.00,meteobridge,2013-11-30 12:59:00,
2013-11-30 08:04:00,29.1,18.5,30.67,West,270,0.0,0.0,64,0.00,,,0.00,meteobridge,2013-11-30 13:04:00,
2013-11-30 08:09:00,29.5,18.5,30.67,West,270,0.0,0.0,63,0.00,,,0.00,meteobridge,2013-11-30 13:09:00,
2013-11-30 08:14:00,29.8,18.9,30.67,West,270,0.0,0.0,63,0.00,,,0.00,meteobridge,2013-11-30 13:14:00,
2013-11-30 08:19:00,30.4,18.9,30.67,SW,225,1.6,1.6,62,0.00,,,0.00,meteobridge,2013-11-30 13:19:00,
2013-11-30 08:24:00,30.9,18.7,30.67,SE,135,1.6,1.6,60,0.00,,,0.00,meteobridge,2013-11-30 13:24:00,
2013-11-30 08:30:00,31.6,19.0,30.67,North,0,0.0,1.6,59,0.00,,,0.00,meteobridge,2013-11-30 13:30:00,
2013-11-30 08:35:00,32.2,18.3,30.67,West,270,3.8,3.8,56,0.00,,,0.00,meteobridge,2013-11-30 13:35:00,
2013-11-30 08:40:00,32.2,17.4,30.67,South,180,0.0,1.6,54,0.00,,,0.00,meteobridge,2013-11-30 13:40:00,
2013-11-30 08:45:00,32.2,17.1,30.67,West,270,1.6,1.6,53,0.00,,,0.00,meteobridge,2013-11-30 13:45:00,
2013-11-30 08:50:00,32.0,16.3,30.67,NW,315,0.7,1.6,52,0.00,,,0.00,meteobridge,2013-11-30 13:50:00,
2013-11-30 08:55:00,32.0,16.0,30.67,NE,45,0.0,0.0,51,0.00,,,0.00,meteobridge,2013-11-30 13:55:00,
2013-11-30 09:01:00,32.5,16.9,30.67,NW,315,0.7,0.7,52,0.00,,,0.00,meteobridge,2013-11-30 14:01:00,
2013-11-30 09:06:00,32.7,16.5,30.67,NW,315,3.1,3.1,51,0.00,,,0.00,meteobridge,2013-11-30 14:06:00,
2013-11-30 09:11:00,32.9,16.7,30.67,South,180,0.7,1.6,51,0.00,,,0.00,meteobridge,2013-11-30 14:11:00,
2013-11-30 09:16:00,33.1,17.4,30.66,East,90,2.2,3.8,52,0.00,,,0.00,meteobridge,2013-11-30 14:16:00,
2013-11-30 09:21:00,33.6,18.3,30.67,East,90,0.7,0.7,53,0.00,,,0.00,meteobridge,2013-11-30 14:21:00,
2013-11-30 09:26:00,33.8,18.0,30.67,NW,315,2.2,2.2,52,0.00,,,0.00,meteobridge,2013-11-30 14:26:00,
2013-11-30 09:32:00,33.8,18.0,30.67,NW,315,4.5,4.5,52,0.00,,,0.00,meteobridge,2013-11-30 14:32:00,
2013-11-30 09:37:00,33.6,18.3,30.67,NE,45,1.6,2.2,53,0.00,,,0.00,meteobridge,2013-11-30 14:37:00,
2013-11-30 09:42:00,33.8,18.0,30.68,SE,135,0.7,2.2,52,0.00,,,0.00,meteobridge,2013-11-30 14:42:00,
2013-11-30 09:47:00,34.3,18.5,30.67,North,0,3.1,3.1,52,0.00,,,0.00,meteobridge,2013-11-30 14:47:00,
2013-11-30 09:52:00,34.5,17.8,30.67,East,90,1.6,1.6,50,0.00,,,0.00,meteobridge,2013-11-30 14:52:00,
2013-11-30 09:57:00,34.7,16.5,30.67,SE,135,0.7,3.1,47,0.00,,,0.00,meteobridge,2013-11-30 14:57:00,
2013-11-30 10:03:00,35.2,16.5,30.67,ESE,113,2.2,2.2,46,0.00,,,0.00,meteobridge,2013-11-30 15:03:00,
2013-11-30 10:08:00,36.0,16.2,30.67,East,90,3.1,3.1,44,0.00,,,0.00,meteobridge,2013-11-30 15:08:00,
2013-11-30 10:13:00,35.6,15.3,30.66,West,270,2.2,2.2,43,0.00,,,0.00,meteobridge,2013-11-30 15:13:00,
2013-11-30 10:18:00,35.1,15.8,30.66,SE,135,1.6,1.6,45,0.00,,,0.00,meteobridge,2013-11-30 15:18:00,
2013-11-30 10:23:00,34.9,15.6,30.66,East,90,1.6,2.2,45,0.00,,,0.00,meteobridge,2013-11-30 15:23:00,
2013-11-30 10:28:00,35.6,16.9,30.66,West,270,2.2,2.2,46,0.00,,,0.00,meteobridge,2013-11-30 15:28:00,
2013-11-30 10:34:00,35.4,17.2,30.66,West,270,2.2,2.2,47,0.00,,,0.00,meteobridge,2013-11-30 15:34:00,
2013-11-30 10:39:00,36.3,17.6,30.66,East,90,1.6,1.6,46,0.00,,,0.00,meteobridge,2013-11-30 15:39:00,
2013-11-30 10:44:00,39.9,22.3,30.65,WNW,293,3.1,3.8,49,0.00,,,0.00,meteobridge,2013-11-30 15:44:00,
2013-11-30 10:49:00,41.5,21.2,30.65,West,270,1.6,2.2,44,0.00,,,0.00,meteobridge,2013-11-30 15:49:00,
2013-11-30 10:54:00,42.8,21.4,30.65,ENE,68,1.6,3.1,42,0.00,,,0.00,meteobridge,2013-11-30 15:54:00,
2013-11-30 10:59:00,42.1,19.6,30.65,SE,135,2.2,2.2,40,0.00,,,0.00,meteobridge,2013-11-30 15:59:00,
2013-11-30 11:05:00,41.5,20.7,30.65,East,90,1.6,2.2,43,0.00,,,0.00,meteobridge,2013-11-30 16:05:00,
2013-11-30 11:10:00,42.3,19.6,30.64,West,270,3.1,3.8,40,0.00,,,0.00,meteobridge,2013-11-30 16:10:00,
2013-11-30 11:15:00,40.6,17.1,30.64,West,270,2.2,2.2,38,0.00,,,0.00,meteobridge,2013-11-30 16:15:00,
2013-11-30 11:20:00,40.6,17.1,30.64,West,270,2.2,2.2,38,0.00,,,0.00,meteobridge,2013-11-30 16:20:00,
2013-11-30 11:25:00,41.2,17.4,30.64,East,90,1.6,3.1,38,0.00,,,0.00,meteobridge,2013-11-30 16:25:00,
2013-11-30 11:30:00,41.5,17.2,30.63,South,180,2.2,3.1,37,0.00,,,0.00,meteobridge,2013-11-30 16:30:00,
2013-11-30 11:36:00,41.5,16.5,30.63,North,0,3.1,3.1,36,0.00,,,0.00,meteobridge,2013-11-30 16:36:00,
2013-11-30 11:41:00,41.4,17.1,30.63,SW,225,2.2,2.2,37,0.00,,,0.00,meteobridge,2013-11-30 16:41:00,
2013-11-30 11:46:00,41.5,17.2,30.63,West,270,3.8,3.8,37,0.00,,,0.00,meteobridge,2013-11-30 16:46:00,
2013-11-30 11:51:00,41.9,17.6,30.62,SW,225,3.1,3.1,37,0.00,,,0.00,meteobridge,2013-11-30 16:51:00,
2013-11-30 11:56:00,42.3,17.8,30.63,West,270,2.2,2.2,37,0.00,,,0.00,meteobridge,2013-11-30 16:56:00,
2013-11-30 12:01:00,42.1,17.1,30.62,East,90,3.1,3.8,36,0.00,,,0.00,meteobridge,2013-11-30 17:01:00,
2013-11-30 12:07:00,41.5,17.8,30.62,South,180,2.2,2.2,38,0.00,,,0.00,meteobridge,2013-11-30 17:07:00,
2013-11-30 12:12:00,41.0,18.0,30.62,West,270,3.1,3.1,39,0.00,,,0.00,meteobridge,2013-11-30 17:12:00,
2013-11-30 12:17:00,40.1,18.9,30.61,SW,225,1.6,2.2,42,0.00,,,0.00,meteobridge,2013-11-30 17:17:00,
2013-11-30 12:22:00,39.6,19.4,30.61,SW,225,1.6,2.2,44,0.00,,,0.00,meteobridge,2013-11-30 17:22:00,
2013-11-30 12:27:00,39.4,19.2,30.61,South,180,2.2,2.2,44,0.00,,,0.00,meteobridge,2013-11-30 17:27:00,
2013-11-30 12:32:00,38.7,19.2,30.60,East,90,4.5,4.5,45,0.00,,,0.00,meteobridge,2013-11-30 17:32:00,
2013-11-30 12:38:00,38.5,19.0,30.60,SW,225,3.8,3.8,45,0.00,,,0.00,meteobridge,2013-11-30 17:38:00,
2013-11-30 12:43:00,38.1,18.7,30.60,SW,225,0.7,2.2,45,0.00,,,0.00,meteobridge,2013-11-30 17:43:00,
2013-11-30 12:48:00,38.1,19.2,30.60,SE,135,4.5,4.5,46,0.00,,,0.00,meteobridge,2013-11-30 17:48:00,
2013-11-30 12:53:00,37.6,18.7,30.60,NW,315,1.6,3.8,46,0.00,,,0.00,meteobridge,2013-11-30 17:53:00,
2013-11-30 12:58:00,37.6,19.2,30.59,West,270,3.1,3.1,47,0.00,,,0.00,meteobridge,2013-11-30 17:58:00,
2013-11-30 13:04:00,37.8,19.4,30.60,West,270,2.2,2.2,47,0.00,,,0.00,meteobridge,2013-11-30 18:04:00,
2013-11-30 13:09:00,37.8,18.9,30.60,SE,135,1.6,2.2,46,0.00,,,0.00,meteobridge,2013-11-30 18:09:00,
2013-11-30 13:14:00,37.8,18.9,30.60,North,0,1.6,2.2,46,0.00,,,0.00,meteobridge,2013-11-30 18:14:00,
2013-11-30 13:19:00,37.6,19.2,30.59,West,270,2.2,3.1,47,0.00,,,0.00,meteobridge,2013-11-30 18:19:00,
2013-11-30 13:24:00,37.0,16.2,30.59,SW,225,0.7,1.6,42,0.00,,,0.00,meteobridge,2013-11-30 18:24:00,
2013-11-30 13:29:00,36.7,16.3,30.59,WSW,248,3.1,3.1,43,0.00,,,0.00,meteobridge,2013-11-30 18:29:00,
2013-11-30 13:35:00,36.3,16.5,30.59,East,90,1.6,1.6,44,0.00,,,0.00,meteobridge,2013-11-30 18:35:00,
2013-11-30 13:40:00,36.3,17.1,30.58,East,90,0.7,1.6,45,0.00,,,0.00,meteobridge,2013-11-30 18:40:00,
2013-11-30 13:45:00,36.0,16.7,30.59,North,0,2.2,2.2,45,0.00,,,0.00,meteobridge,2013-11-30 18:45:00,
2013-11-30 13:50:00,35.8,17.1,30.58,North,0,0.0,0.7,46,0.00,,,0.00,meteobridge,2013-11-30 18:50:00,
2013-11-30 13:55:00,36.0,17.2,30.58,SE,135,2.2,2.2,46,0.00,,,0.00,meteobridge,2013-11-30 18:55:00,
2013-11-30 14:00:00,35.6,17.4,30.58,West,270,1.6,1.6,47,0.00,,,0.00,meteobridge,2013-11-30 19:00:00,
2013-11-30 14:06:00,35.1,17.4,30.59,SW,225,0.7,1.6,48,0.00,,,0.00,meteobridge,2013-11-30 19:06:00,
2013-11-30 14:11:00,34.5,17.2,30.58,SW,225,0.7,0.7,49,0.00,,,0.00,meteobridge,2013-11-30 19:11:00,
2013-11-30 14:16:00,34.3,17.2,30.58,WNW,293,1.6,2.2,49,0.00,,,0.00,meteobridge,2013-11-30 19:16:00,
2013-11-30 14:21:00,34.0,17.8,30.58,NW,315,2.2,2.2,51,0.00,,,0.00,meteobridge,2013-11-30 19:21:00,
2013-11-30 14:26:00,34.0,18.1,30.58,NW,315,2.2,2.2,52,0.00,,,0.00,meteobridge,2013-11-30 19:26:00,
2013-11-30 14:31:00,33.8,18.0,30.58,SW,225,0.7,0.7,52,0.00,,,0.00,meteobridge,2013-11-30 19:31:00,
2013-11-30 14:37:00,33.8,18.0,30.58,West,270,0.0,0.0,52,0.00,,,0.00,meteobridge,2013-11-30 19:37:00,
2013-11-30 14:42:00,33.8,18.0,30.57,NW,315,0.0,0.0,52,0.00,,,0.00,meteobridge,2013-11-30 19:42:00,
2013-11-30 14:47:00,34.0,18.1,30.57,NW,315,0.7,0.7,52,0.00,,,0.00,meteobridge,2013-11-30 19:47:00,
2013-11-30 14:52:00,34.3,18.5,30.57,SE,135,1.6,2.2,52,0.00,,,0.00,meteobridge,2013-11-30 19:52:00,
2013-11-30 14:57:00,34.7,18.9,30.57,West,270,1.6,1.6,52,0.00,,,0.00,meteobridge,2013-11-30 19:57:00,
2013-11-30 15:02:00,34.9,19.0,30.57,West,270,1.6,2.2,52,0.00,,,0.00,meteobridge,2013-11-30 20:02:00,
2013-11-30 15:08:00,34.7,18.9,30.57,West,270,2.2,2.2,52,0.00,,,0.00,meteobridge,2013-11-30 20:08:00,
2013-11-30 15:13:00,34.3,18.5,30.56,West,270,1.6,1.6,52,0.00,,,0.00,meteobridge,2013-11-30 20:13:00,
2013-11-30 15:18:00,34.2,18.3,30.56,West,270,1.6,1.6,52,0.00,,,0.00,meteobridge,2013-11-30 20:18:00,
2013-11-30 15:23:00,33.8,18.0,30.56,South,180,0.7,3.1,52,0.00,,,0.00,meteobridge,2013-11-30 20:23:00,
2013-11-30 15:28:00,33.6,18.3,30.56,NW,315,0.0,0.7,53,0.00,,,0.00,meteobridge,2013-11-30 20:28:00,
2013-11-30 15:33:00,33.6,18.7,30.56,NW,315,0.0,0.0,54,0.00,,,0.00,meteobridge,2013-11-30 20:33:00,
2013-11-30 15:38:00,33.3,18.5,30.55,NW,315,0.7,1.6,54,0.00,,,0.00,meteobridge,2013-11-30 20:38:00,
2013-11-30 15:44:00,33.3,18.5,30.55,NW,315,0.0,0.0,54,0.00,,,0.00,meteobridge,2013-11-30 20:44:00,
2013-11-30 15:49:00,32.9,18.1,30.55,West,270,0.7,0.7,54,0.00,,,0.00,meteobridge,2013-11-30 20:49:00,
2013-11-30 15:54:00,32.5,18.1,30.55,West,270,0.0,0.0,55,0.00,,,0.00,meteobridge,2013-11-30 20:54:00,
2013-11-30 15:59:00,32.2,17.8,30.55,West,270,0.0,0.0,55,0.00,,,0.00,meteobridge,2013-11-30 20:59:00,
2013-11-30 16:04:00,31.8,18.0,30.55,West,270,0.0,0.0,56,0.00,,,0.00,meteobridge,2013-11-30 21:04:00,
2013-11-30 16:09:00,31.3,17.8,30.55,West,270,0.0,0.0,57,0.00,,,0.00,meteobridge,2013-11-30 21:09:00,
2013-11-30 16:15:00,30.9,17.4,30.55,West,270,0.0,0.0,57,0.00,,,0.00,meteobridge,2013-11-30 21:15:00,
2013-11-30 16:20:00,30.4,17.4,30.55,West,270,0.0,0.0,58,0.00,,,0.00,meteobridge,2013-11-30 21:20:00,
2013-11-30 16:25:00,30.0,17.4,30.55,West,270,0.0,0.0,59,0.00,,,0.00,meteobridge,2013-11-30 21:25:00,
2013-11-30 16:30:00,29.5,17.2,30.55,West,270,0.0,0.0,60,0.00,,,0.00,meteobridge,2013-11-30 21:30:00,
2013-11-30 16:35:00,29.1,16.9,30.55,West,270,0.0,0.0,60,0.00,,,0.00,meteobridge,2013-11-30 21:35:00,
2013-11-30 16:40:00,28.9,17.2,30.55,West,270,0.0,0.0,61,0.00,,,0.00,meteobridge,2013-11-30 21:40:00,
2013-11-30 16:46:00,28.6,16.9,30.55,West,270,0.0,0.0,61,0.00,,,0.00,meteobridge,2013-11-30 21:46:00,
2013-11-30 16:51:00,28.2,15.3,30.55,West,270,0.0,0.0,58,0.00,,,0.00,meteobridge,2013-11-30 21:51:00,
2013-11-30 16:56:00,28.0,15.6,30.54,West,270,0.0,0.0,59,0.00,,,0.00,meteobridge,2013-11-30 21:56:00,
2013-11-30 17:01:00,27.9,15.4,30.54,West,270,0.0,0.0,59,0.00,,,0.00,meteobridge,2013-11-30 22:01:00,
2013-11-30 17:06:00,27.5,15.4,30.54,West,270,0.0,0.0,60,0.00,,,0.00,meteobridge,2013-11-30 22:06:00,
2013-11-30 17:11:00,27.5,15.8,30.54,West,270,0.0,0.0,61,0.00,,,0.00,meteobridge,2013-11-30 22:11:00,
2013-11-30 17:17:00,27.3,15.6,30.53,West,270,0.0,0.0,61,0.00,,,0.00,meteobridge,2013-11-30 22:17:00,
2013-11-30 17:22:00,27.1,15.4,30.53,West,270,0.0,0.0,61,0.00,,,0.00,meteobridge,2013-11-30 22:22:00,
2013-11-30 17:27:00,27.1,15.8,30.53,West,270,0.0,0.0,62,0.00,,,0.00,meteobridge,2013-11-30 22:27:00,
2013-11-30 17:32:00,27.0,15.6,30.53,West,270,0.0,0.0,62,0.00,,,0.00,meteobridge,2013-11-30 22:32:00,
2013-11-30 17:37:00,26.8,15.4,30.53,West,270,0.0,0.0,62,0.00,,,0.00,meteobridge,2013-11-30 22:37:00,
2013-11-30 17:42:00,26.6,15.3,30.53,West,270,0.0,0.0,62,0.00,,,0.00,meteobridge,2013-11-30 22:42:00,
2013-11-30 17:48:00,26.6,15.3,30.53,West,270,0.0,0.0,62,0.00,,,0.00,meteobridge,2013-11-30 22:48:00,
2013-11-30 17:53:00,26.4,16.0,30.53,West,270,0.0,0.0,64,0.00,,,0.00,meteobridge,2013-11-30 22:53:00,
2013-11-30 17:58:00,26.2,15.8,30.53,West,270,0.0,0.0,64,0.00,,,0.00,meteobridge,2013-11-30 22:58:00,
2013-11-30 18:03:00,26.2,15.8,30.53,West,270,0.0,0.0,64,0.00,,,0.00,meteobridge,2013-11-30 23:03:00,
2013-11-30 18:08:00,26.2,15.8,30.53,West,270,0.0,0.0,64,0.00,,,0.00,meteobridge,2013-11-30 23:08:00,
2013-11-30 18:13:00,26.1,16.0,30.53,West,270,0.0,0.0,65,0.00,,,0.00,meteobridge,2013-11-30 23:13:00,
2013-11-30 18:19:00,26.1,16.0,30.53,West,270,0.0,0.0,65,0.00,,,0.00,meteobridge,2013-11-30 23:19:00,
2013-11-30 18:24:00,26.1,16.3,30.53,West,270,0.0,0.0,66,0.00,,,0.00,meteobridge,2013-11-30 23:24:00,
2013-11-30 18:29:00,26.1,16.3,30.52,West,270,0.0,0.0,66,0.00,,,0.00,meteobridge,2013-11-30 23:29:00,
2013-11-30 18:34:00,26.1,16.3,30.52,West,270,0.0,0.0,66,0.00,,,0.00,meteobridge,2013-11-30 23:34:00,
2013-11-30 18:39:00,26.1,16.3,30.52,West,270,0.0,0.0,66,0.00,,,0.00,meteobridge,2013-11-30 23:39:00,
2013-11-30 18:44:00,25.9,16.5,30.52,West,270,0.0,0.0,67,0.00,,,0.00,meteobridge,2013-11-30 23:44:00,
2013-11-30 18:50:00,25.9,16.5,30.52,West,270,0.0,0.7,67,0.00,,,0.00,meteobridge,2013-11-30 23:50:00,
2013-11-30 18:55:00,25.9,16.5,30.52,West,270,0.0,0.0,67,0.00,,,0.00,meteobridge,2013-11-30 23:55:00,
2013-11-30 19:00:00,25.7,16.5,30.51,West,270,0.0,0.0,68,0.00,,,0.00,meteobridge,2013-12-01 00:00:00,
2013-11-30 19:05:00,25.7,16.5,30.51,West,270,0.0,0.0,68,0.00,,,0.00,meteobridge,2013-12-01 00:05:00,
2013-11-30 19:10:00,25.5,16.5,30.51,West,270,0.0,0.0,68,0.00,,,0.00,meteobridge,2013-12-01 00:10:00,
2013-11-30 19:15:00,25.5,16.5,30.50,West,270,0.0,0.0,68,0.00,,,0.00,meteobridge,2013-12-01 00:15:00,
2013-11-30 19:21:00,25.5,16.7,30.50,West,270,0.0,0.0,69,0.00,,,0.00,meteobridge,2013-12-01 00:21:00,
2013-11-30 19:26:00,25.5,16.7,30.50,West,270,0.0,0.0,69,0.00,,,0.00,meteobridge,2013-12-01 00:26:00,
2013-11-30 19:31:00,25.5,17.1,30.50,West,270,0.0,0.0,70,0.00,,,0.00,meteobridge,2013-12-01 00:31:00,
2013-11-30 19:36:00,25.5,17.1,30.50,West,270,0.0,0.0,70,0.00,,,0.00,meteobridge,2013-12-01 00:36:00,
2013-11-30 19:41:00,25.2,16.7,30.50,West,270,0.0,0.0,70,0.00,,,0.00,meteobridge,2013-12-01 00:41:00,
2013-11-30 19:46:00,25.2,17.1,30.49,West,270,0.0,0.0,71,0.00,,,0.00,meteobridge,2013-12-01 00:46:00,
2013-11-30 19:52:00,25.2,17.1,30.49,West,270,0.0,0.0,71,0.00,,,0.00,meteobridge,2013-12-01 00:52:00,
2013-11-30 19:57:00,25.2,17.1,30.49,West,270,0.0,0.0,71,0.00,,,0.00,meteobridge,2013-12-01 00:57:00,
2013-11-30 20:02:00,25.0,17.2,30.49,West,270,0.0,0.0,72,0.00,,,0.00,meteobridge,2013-12-01 01:02:00,
2013-11-30 20:07:00,25.0,17.2,30.49,West,270,0.0,0.0,72,0.00,,,0.00,meteobridge,2013-12-01 01:07:00,
2013-11-30 20:12:00,24.8,17.1,30.48,West,270,0.0,0.0,72,0.00,,,0.00,meteobridge,2013-12-01 01:12:00,
2013-11-30 20:17:00,24.8,17.1,30.48,West,270,0.0,0.0,72,0.00,,,0.00,meteobridge,2013-12-01 01:17:00,
2013-11-30 20:23:00,24.6,17.2,30.48,West,270,0.0,0.0,73,0.00,,,0.00,meteobridge,2013-12-01 01:23:00,
2013-11-30 20:28:00,24.6,17.2,30.48,West,270,0.0,0.0,73,0.00,,,0.00,meteobridge,2013-12-01 01:28:00,
2013-11-30 20:33:00,24.6,17.2,30.47,West,270,0.0,0.0,73,0.00,,,0.00,meteobridge,2013-12-01 01:33:00,
2013-11-30 20:38:00,24.6,17.2,30.47,West,270,0.0,0.0,73,0.00,,,0.00,meteobridge,2013-12-01 01:38:00,
2013-11-30 20:43:00,24.6,17.6,30.47,West,270,0.0,0.7,74,0.00,,,0.00,meteobridge,2013-12-01 01:43:00,
2013-11-30 20:45:00,24.6,17.6,30.47,West,270,0.0,0.0,74,0.00,,,0.00,meteobridge,2013-12-01 01:45:00,
2013-11-30 20:50:00,24.6,17.6,30.47,West,270,0.0,0.0,74,0.00,,,0.00,meteobridge,2013-12-01 01:50:00,
2013-11-30 20:55:00,24.6,17.6,30.47,West,270,0.0,0.0,74,0.00,,,0.00,meteobridge,2013-12-01 01:55:00,
2013-11-30 21:00:00,24.6,17.6,30.47,West,270,0.0,0.0,74,0.00,,,0.00,meteobridge,2013-12-01 02:00:00,
2013-11-30 21:05:00,24.6,17.6,30.46,West,270,0.0,0.0,74,0.00,,,0.00,meteobridge,2013-12-01 02:05:00,
2013-11-30 21:11:00,24.6,17.6,30.46,West,270,0.0,0.0,74,0.00,,,0.00,meteobridge,2013-12-01 02:11:00,
2013-11-30 21:16:00,24.6,17.6,30.46,West,270,0.0,0.0,74,0.00,,,0.00,meteobridge,2013-12-01 02:16:00,
2013-11-30 21:21:00,24.8,17.4,30.46,West,270,0.0,0.0,73,0.00,,,0.00,meteobridge,2013-12-01 02:21:00,
2013-11-30 21:26:00,24.8,17.4,30.45,West,270,0.0,0.0,73,0.00,,,0.00,meteobridge,2013-12-01 02:26:00,
2013-11-30 21:31:00,25.0,18.0,30.45,SW,225,0.0,0.0,74,0.00,,,0.00,meteobridge,2013-12-01 02:31:00,
2013-11-30 21:36:00,25.2,18.0,30.45,SW,225,0.0,0.0,74,0.00,,,0.00,meteobridge,2013-12-01 02:36:00,
2013-11-30 21:42:00,25.3,18.1,30.45,NW,315,0.0,0.0,74,0.00,,,0.00,meteobridge,2013-12-01 02:42:00,
2013-11-30 21:47:00,25.5,18.3,30.45,South,180,0.0,0.7,74,0.00,,,0.00,meteobridge,2013-12-01 02:47:00,
2013-11-30 21:52:00,25.7,18.5,30.45,NW,315,0.0,0.0,74,0.00,,,0.00,meteobridge,2013-12-01 02:52:00,
2013-11-30 21:57:00,25.9,18.7,30.45,NW,315,0.0,0.0,74,0.00,,,0.00,meteobridge,2013-12-01 02:57:00,
2013-11-30 22:02:00,26.2,19.4,30.45,NW,315,0.0,0.0,75,0.00,,,0.00,meteobridge,2013-12-01 03:02:00,
2013-11-30 22:07:00,26.4,19.6,30.44,NW,315,0.0,0.0,75,0.00,,,0.00,meteobridge,2013-12-01 03:07:00,
2013-11-30 22:13:00,26.6,19.4,30.44,NW,315,0.0,0.0,74,0.00,,,0.00,meteobridge,2013-12-01 03:13:00,
2013-11-30 22:18:00,26.6,19.4,30.44,NW,315,0.0,0.0,74,0.00,,,0.00,meteobridge,2013-12-01 03:18:00,
2013-11-30 22:23:00,26.8,19.6,30.44,NW,315,0.0,0.0,74,0.00,,,0.00,meteobridge,2013-12-01 03:23:00,
2013-11-30 22:28:00,27.0,19.8,30.43,NW,315,0.0,0.0,74,0.00,,,0.00,meteobridge,2013-12-01 03:28:00,
2013-11-30 22:33:00,27.0,19.8,30.43,NW,315,0.0,0.0,74,0.00,,,0.00,meteobridge,2013-12-01 03:33:00,
2013-11-30 22:38:00,27.1,19.9,30.43,West,270,0.0,0.0,74,0.00,,,0.00,meteobridge,2013-12-01 03:38:00,
2013-11-30 22:44:00,27.1,19.9,30.42,West,270,0.0,0.0,74,0.00,,,0.00,meteobridge,2013-12-01 03:44:00,
2013-11-30 22:49:00,27.1,19.9,30.42,North,0,0.0,0.0,74,0.00,,,0.00,meteobridge,2013-12-01 03:49:00,
2013-11-30 22:54:00,27.3,20.1,30.42,North,0,0.0,0.0,74,0.00,,,0.00,meteobridge,2013-12-01 03:54:00,
2013-11-30 22:59:00,27.5,20.3,30.42,North,0,0.0,0.0,74,0.00,,,0.00,meteobridge,2013-12-01 03:59:00,
2013-11-30 23:04:00,27.5,20.3,30.42,North,0,0.0,0.0,74,0.00,,,0.00,meteobridge,2013-12-01 04:04:00,
2013-11-30 23:09:00,27.7,20.5,30.42,North,0,0.0,0.7,74,0.00,,,0.00,meteobridge,2013-12-01 04:09:00,
2013-11-30 23:15:00,27.7,20.5,30.42,North,0,0.0,0.7,74,0.00,,,0.00,meteobridge,2013-12-01 04:15:00,
2013-11-30 23:20:00,27.7,20.5,30.41,SE,135,0.0,0.0,74,0.00,,,0.00,meteobridge,2013-12-01 04:20:00,
2013-11-30 23:25:00,27.7,20.5,30.41,NW,315,0.0,0.0,74,0.00,,,0.00,meteobridge,2013-12-01 04:25:00,
2013-11-30 23:30:00,27.7,20.5,30.41,NW,315,0.0,0.0,74,0.00,,,0.00,meteobridge,2013-12-01 04:30:00,
2013-11-30 23:35:00,27.5,20.3,30.41,NW,315,0.0,0.0,74,0.00,,,0.00,meteobridge,2013-12-01 04:35:00,
2013-11-30 23:40:00,27.5,20.3,30.41,NW,315,0.0,0.0,74,0.00,,,0.00,meteobridge,2013-12-01 04:40:00,
2013-11-30 23:46:00,27.5,20.3,30.40,NW,315,0.0,0.0,74,0.00,,,0.00,meteobridge,2013-12-01 04:46:00,
2013-11-30 23:51:00,27.5,20.3,30.40,NW,315,0.0,0.0,74,0.00,,,0.00,meteobridge,2013-12-01 04:51:00,
2013-11-30 23:56:00,27.7,20.5,30.40,NW,315,0.0,0.0,74,0.00,,,0.00,meteobridge,2013-12-01 04:56:00,